Regional Weather Roundup
Issued by NWS Burlington, VT

Current Version | Previous Version | Text Only | Print | Product List | Glossary On
Versions: 1 2 3 4 5 6 7 8 9 10 11 12 13 14 15 16 17 18 19 20 21 22 23 24 25 26 27 28 29 30 31 32 33 34 35 36 37 38 39 40 41 42 43 44 45 46 47 48 49 50
782 ASUS41 KBTV 121710 RWRBTV VERMONT REGIONAL WEATHER ROUNDUP NATIONAL WEATHER SERVICE BURLINGTON VT 1200 PM EST TUE DEC 12 2017 NOTE: "FAIR" INDICATES FEW OR NO CLOUDS BELOW 12,000 FEET WITH NO SIGNIFICANT WEATHER AND/OR OBSTRUCTIONS TO VISIBILITY. * THESE REPORTS ARE NOT UNDER NWS QUALITY CONTROL AND/OR DO NOT REPORT WEATHER SUCH AS PRECIPITATION AND FOG. VTZ001>019-121800- _____VERMONT_____ CITY SKY/WX TMP DP RH WIND PRES REMARKS BURLINGTON SNOW 29 26 89 CALM 29.50F VSB 1/2 MONTPELIER SNOW 26 24 92 S13 29.55F VSB 1/2 WCI 15 MORRISVILLE SNOW 26 25 96 CALM 29.54F VSB 1/2 ST. JOHNSBURY* N/A 26 25 96 MISG 29.54F LYNDONVILLE* LGT SNOW 27 25 94 SE3 29.54F VSB 3/4 MIDDLEBURY* LGT SNOW 32 28 83 SE8G18 29.48F WCI 25 RUTLAND* SNOW 30 28 92 SE14 29.51F VSB 1/4 WCI 19 SPRINGFIELD SNOW 29 28 96 CALM 29.56F VSB 1/2 HIGHGATE* LGT SNOW 31 29 94 SE5 29.51F WCI 26 NEWPORT* LGT SNOW 24 22 93 CALM 29.54F BENNINGTON LGT RAIN 37 30 75 S10 29.47F WCI 30 SUTTON* N/A 27 N/A N/A MISG N/A _____LAKE CHAMPLAIN_____ CITY SKY/WX TMP DP RH WIND PRES REMARKS BURTON ISLAND* N/A 32 32 100 S2 N/A COLCHESTER RF* N/A 32 30 93 SE13 N/A WCI 22 DIAMOND ISL* N/A 32 32 100 SE6 N/A WCI 26 $$ NYZ007-026>031-035-052-083-087-121800- _____NORTHERN NEW YORK_____ CITY SKY/WX TMP DP RH WIND PRES REMARKS PLATTSBURGH LGT SNOW 32 29 88 S10 29.50F FOG WCI 24 SARANAC LAKE CLOUDY 30 27 88 CALM 29.37F MASSENA LGT SNOW 19 17 92 NE12 29.50F FOG WCI 7 OGDENSBURG* LGT SNOW 22 19 87 NE5 29.47F VSB 1 WCI 16 POTSDAM* PTSUNNY 18 16 93 NE13 29.46F WCI 4 WATERTOWN LGT SNOW 26 25 96 NE5 29.43F FOG WCI 20 FT DRUM FLURRIES 32 28 86 CALM 29.40F ALBANY LGT RAIN 35 32 88 S7 29.49F FOG WCI 29 GLENS FALLS LGT SNOW 30 29 96 CALM 29.49F FOG $$ NHZ002-005-011-121800- _____NEW HAMPSHIRE_____ CITY SKY/WX TMP DP RH WIND PRES REMARKS LEBANON LGT SNOW 28 24 85 N5 29.56F FOG WCI 23 KEENE MIX PCPN 34 31 88 CALM 29.54F FOG MT WASHINGTON SNOW 14 14 100 S49G66 N/A VSB 0 WCI -11 PLYMOUTH LGT SNOW 23 21 91 SE3 29.64F VSB 3/4 WHITEFIELD LGT SNOW 28 23 81 NE12 29.55F WCI 18 $$ _____REGIONAL QUEBEC LOCATIONS_____ CITY SKY/WX TMP DP RH WIND PRES REMARKS MONTREAL LGT SNOW 18 14 86 NE20G26 29.54F VSB 5/8 WCI 1 QUEBEC CITY SNOW 14 10 85 E28G39 29.76F VSB 3/8 WCI -6 SHERBROOKE CLOUDY 27 18 69 E5 29.57F WCI 21 _____REGIONAL ONTARIO LOCATIONS_____ CITY SKY/WX TMP DP RH WIND PRES REMARKS OTTAWA LGT SNOW 18 12 79 NE15 29.50F WCI 3 ______KEY______ VSB - VISIBILITY IN MILES WCI - WIND CHILL INDEX HX - HEAT INDEX $$ NNNN

USA.gov is the U.S. government's official web portal to all federal, state and local government web resources and services.